Stations météo

réclame
Mon MeteoGroup
Torpshammar, Suède (2343): Température de l'air & dewpoint: 17.10.2018 23:00:00 - 23.10.2018 23:00:00 (CEST)Torpshammar, Suède (2343): Vitesse du vent & gusts: 17.10.2018 23:00:00 - 23.10.2018 23:00:00 (CEST)Torpshammar, Suède (2343): Direction du vent: 17.10.2018 23:00:00 - 23.10.2018 23:00:00 (CEST)Torpshammar, Suède (2343): reduced air pressure: 17.10.2018 23:00:00 - 23.10.2018 23:00:00 (CEST)Torpshammar, Suède (2343): visibility: 17.10.2018 23:00:00 - 23.10.2018 23:00:00 (CEST)Torpshammar, Suède (2343): Quantités de précipitations: 17.10.2018 23:00:00 - 23.10.2018 23:00:00 (CEST)
Date & Time tt [°C] td [°C] ff [km/h] ff [knt] fx [km/h] fx [knt] dd ppp [hPa] vv [km] rr [mm]
23.10.2018 23:00:00 1,3 -1,8 8 4 21 11 WNW 996,5 50 0,0
23.10.2018 22:00:00 1,7 -1,7 11 6 25 13 NW 995,8 50 0,0
23.10.2018 21:00:00 2,4 -1,0 13 7 25 14 NW 994,9 50 0,0
23.10.2018 20:00:00 2,8 -0,5 13 7 23 12 NW 994,3 50 0,0
23.10.2018 19:00:00 3,1 1,0 8 4 19 10 WNW 993,5 50 0,0
23.10.2018 18:00:00 2,8 1,6 6 3 14 7 WNW 993,0 50 0,0
23.10.2018 17:00:00 3,2 1,7 10 5 19 11 NW 992,6 40 0,4
23.10.2018 16:00:00 3,7 2,2 7 4 17 9 W 992,1 50 0,2
23.10.2018 15:00:00 4,4 1,6 9 5 18 10 W 991,7 50 0,0
23.10.2018 14:00:00 4,6 1,8 6 3 12 7 W 991,7 50 0,0
23.10.2018 13:00:00 4,8 1,8 8 4 13 7 W 991,8 50 0,0
23.10.2018 12:00:00 4,1 1,8 5 3 13 7 W 991,8 50 0,0
23.10.2018 11:00:00 3,2 0,8 4 2 10 5 W 991,8 50 0,0
23.10.2018 10:00:00 0,4 -0,5 0 0 2 1 N 991,7 50 0,0
23.10.2018 09:00:00 0,2 -0,4 0 0 4 2 N 991,9 50 0,0
23.10.2018 08:00:00 0,1 -0,3 2 1 4 2 W 991,8 50 0,0
23.10.2018 07:00:00 -0,1 -0,7 0 0 3 2 N 991,9 37 0,0
23.10.2018 06:00:00 -0,5 -0,9 0 0 2 1 N 992,5 50 0,0
23.10.2018 05:00:00 -1,0 -1,3 0 0 3 1 N 993,3 50 0,0
23.10.2018 04:00:00 -0,7 -1,3 0 0 5 3 N 994,1 50 0,0
23.10.2018 03:00:00 -0,5 -1,1 0 0 6 3 N 995,7 50 0,0
23.10.2018 02:00:00 -0,6 -1,2 0 0 5 3 N 997,4 50 0,0
23.10.2018 01:00:00 -0,7 -1,3 2 1 5 3 N 999,0 50 0,0
23.10.2018 00:00:00 -0,8 -1,6 0 0 6 3 N 1000,7 50 0,0
22.10.2018 23:00:00 -1,0 -1,8 0 0 5 3 N 1001,9 50 0,0
22.10.2018 22:00:00 -0,6 -1,7 0 0 8 4 N 1003,1 50 0,0
22.10.2018 21:00:00 0,3 -1,8 0 0 15 8 N 1004,1 50 0,0
22.10.2018 20:00:00 3,4 -1,4 6 4 17 9 NW 1004,5 50 0,0
22.10.2018 19:00:00 5,0 -1,2 9 5 24 13 W 1005,1 50 0,0
22.10.2018 18:00:00 6,2 -1,0 14 7 25 14 W 1005,4 50 0,0
22.10.2018 17:00:00 7,3 -0,9 12 6 31 17 W 1005,1 50 0,0
22.10.2018 16:00:00 7,9 -0,6 6 4 24 13 W 1004,9 50 0,0
22.10.2018 15:00:00 8,4 -0,9 16 8 33 18 W 1004,6 50 0,0
22.10.2018 14:00:00 7,5 0,0 11 6 34 18 W 1004,7 50 0,0
22.10.2018 13:00:00 7,1 1,0 9 5 21 11 W 1005,0 50 0,0
22.10.2018 12:00:00 5,0 2,5 7 4 13 7 W 1004,8 50 0,0
22.10.2018 11:00:00 0,7 0,7 0 0 5 3 N 1005,4 0,6 0,0
22.10.2018 10:00:00 -0,6 -0,6 0 0 3 2 N 1005,6 0,5 0,0
22.10.2018 09:00:00 -1,3 -1,3 0 0 5 3 N 1005,6 0,4 0,0
22.10.2018 08:00:00 -1,0 -1,0 0 0 3 2 N 1005,4 1,8 0,0
22.10.2018 07:00:00 -1,2 -1,2 3 1 6 4 ESE 1005,5 0,8 0,0
22.10.2018 06:00:00 -0,9 -0,9 0 0 4 2 N 1005,6 50 0,0
22.10.2018 05:00:00 -0,6 -0,6 0 0 3 1 N 1006,0 2,7 0,0
22.10.2018 04:00:00 0,7 0,7 0 0 3 2 N 1005,8 50 0,0
22.10.2018 03:00:00 1,7 1,4 0 0 4 2 N 1005,9 11 0,0
22.10.2018 02:00:00 3,0 2,9 0 0 9 5 N 1005,3 9 0,0
22.10.2018 01:00:00 4,9 4,6 5 3 11 6 NNW 1004,9 50 0,0
22.10.2018 00:00:00 5,3 5,0 4 2 9 5 NW 1004,2 50 0,8
21.10.2018 23:00:00 5,7 5,1 4 2 9 5 WNW 1004,2 11 3,5
21.10.2018 22:00:00 6,4 5,5 5 3 18 10 WNW 1004,3 8 2,7
21.10.2018 21:00:00 7,4 6,7 6 3 17 9 N 1003,5 6 3,8
21.10.2018 20:00:00 7,2 7,1 0 0 3 2 N 1003,7 5 1,8
21.10.2018 19:00:00 7,5 6,9 0 0 3 2 N 1004,5 26 0,0
21.10.2018 18:00:00 7,7 6,8 0 0 4 2 N 1005,4 50 0,0
21.10.2018 17:00:00 8,2 6,8 0 0 4 2 N 1006,2 50 0,0
21.10.2018 16:00:00 8,2 6,5 0 0 5 3 N 1007,1 50 0,0
21.10.2018 15:00:00 9,6 6,7 2 1 6 3 E 1007,8 50 0,0
21.10.2018 14:00:00 8,8 6,4 0 0 5 3 N 1008,6 50 0,0
21.10.2018 13:00:00 8,0 6,0 0 0 6 3 N 1009,2 50 0,0
21.10.2018 12:00:00 7,9 6,5 0 0 5 3 N 1009,6 50 0,0
21.10.2018 11:00:00 6,4 6,0 0 0 6 3 N 1010,5 50 0,0
21.10.2018 10:00:00 5,1 5,1 0 0 5 3 N 1011,3 50 0,0
21.10.2018 09:00:00 3,1 3,1 0 0 3 1 N 1011,1 43 0,0
21.10.2018 08:00:00 3,5 3,5 0 0 3 2 N 1011,8 40 0,1
21.10.2018 07:00:00 3,3 3,3 0 0 4 2 N 1012,1 42 0,0
21.10.2018 06:00:00 3,1 3,0 0 0 8 4 N 1012,7 50 0,0
21.10.2018 05:00:00 3,4 3,4 2 1 7 4 NNE 1013,3 36 0,3
21.10.2018 04:00:00 2,3 2,3 0 0 7 4 N 1014,3 19 0,1
21.10.2018 03:00:00 0,1 0,1 0 0 4 2 N 1015,5 50 0,0
21.10.2018 02:00:00 -0,8 -0,9 0 0 3 2 N 1016,7 50 0,0
21.10.2018 01:00:00 -1,2 -1,2 2 1 5 3 SE 1017,9 50 0,0
21.10.2018 00:00:00 -2,2 -2,3 0 0 4 2 N 1019,3 48 0,0
20.10.2018 23:00:00 -1,9 -2,0 0 0 2 1 N 1019,1 50 0,0
20.10.2018 22:00:00 -1,3 -1,4 0 0 3 1 N 1019,7 50 0,0
20.10.2018 21:00:00 -0,9 -1,2 0 0 3 2 N 1020,3 50 0,0
20.10.2018 20:00:00 -0,1 -0,4 0 0 2 1 N 1020,7 48 0,0
20.10.2018 19:00:00 1,4 1,0 0 0 3 2 N 1020,8 50 0,0
20.10.2018 18:00:00 3,6 2,7 0 0 5 3 N 1020,6 50 0,0
20.10.2018 17:00:00 5,8 3,3 0 0 8 5 N 1020,4 50 0,0
20.10.2018 16:00:00 9,5 3,7 5 3 15 8 W 1020,3 50 0,0
20.10.2018 15:00:00 10,3 3,8 7 4 20 11 W 1020,1 50 0,0
20.10.2018 14:00:00 9,8 3,7 9 5 20 11 W 1020,3 50 0,0
20.10.2018 13:00:00 8,8 3,0 3 2 7 4 W 1020,1 50 0,0
20.10.2018 12:00:00 7,4 3,1 0 0 4 2 N 1019,9 50 0,0
20.10.2018 11:00:00 3,8 3,5 0 0 6 3 N 1020,2 50 0,0
20.10.2018 10:00:00 0,3 0,3 3 2 7 4 W 1019,8 0,6 0,0
20.10.2018 09:00:00 0,1 0,1 3 2 6 3 NW 1019,1 0,2 0,0
20.10.2018 08:00:00 0,0 0,0 0 0 5 3 N 1018,8 0,2 0,0
20.10.2018 07:00:00 0,7 0,7 0 0 8 5 N 1018,4 1,6 0,0
20.10.2018 06:00:00 0,7 0,7 0 0 3 2 N 1017,9 0,1 0,0
20.10.2018 05:00:00 0,5 0,4 0 0 4 2 N 1017,8 14 0,0
20.10.2018 04:00:00 0,4 0,3 0 0 3 1 N 1018,1 50 0,0
20.10.2018 03:00:00 0,6 0,5 0 0 3 2 N 1018,0 50 0,0
20.10.2018 02:00:00 0,9 0,8 0 0 4 2 N 1018,2 50 0,0
20.10.2018 01:00:00 0,9 0,6 0 0 3 2 N 1018,7 50 0,0
20.10.2018 00:00:00 2,3 2,0 0 0 2 1 N 1018,9 50 0,0
19.10.2018 23:00:00 1,8 1,4 0 0 2 1 N 1019,1 50 0,0
19.10.2018 22:00:00 2,4 1,7 0 0 2 1 N 1019,2 50 0,0
19.10.2018 21:00:00 2,6 2,0 0 0 3 1 N 1019,5 50 0,0
19.10.2018 20:00:00 3,2 2,4 0 0 3 1 N 1019,3 50 0,0
19.10.2018 19:00:00 4,1 2,8 0 0 4 2 N 1019,7 50 0,0
19.10.2018 18:00:00 4,9 2,9 0 0 3 2 N 1019,7 50 0,0
19.10.2018 17:00:00 6,7 3,0 0 0 8 4 N 1019,5 50 0,0
19.10.2018 16:00:00 9,5 3,2 3 1 11 6 NW 1019,7 50 0,0
19.10.2018 15:00:00 9,9 2,7 6 4 18 10 WNW 1020,0 50 0,0
19.10.2018 14:00:00 10,1 2,9 9 5 20 11 W 1020,0 50 0,0
19.10.2018 13:00:00 9,4 2,5 12 6 24 13 W 1020,2 50 0,0
19.10.2018 12:00:00 8,5 2,3 7 4 20 11 W 1020,4 50 0,0
19.10.2018 11:00:00 6,5 1,8 9 5 19 11 WNW 1020,7 50 0,0
19.10.2018 10:00:00 4,4 1,3 5 3 11 6 NW 1020,9 50 0,0
19.10.2018 09:00:00 0,5 -0,6 4 2 19 10 SE 1020,9 50 0,0
19.10.2018 08:00:00 -1,3 -1,7 0 0 14 7 N 1020,2 50 0,0
19.10.2018 07:00:00 -0,5 -0,9 4 2 9 5 NNW 1020,3 50 0,0
19.10.2018 06:00:00 -0,9 -1,5 0 0 5 3 N 1020,2 50 0,0
19.10.2018 05:00:00 0,4 -0,6 0 0 5 3 N 1020,1 50 0,0
19.10.2018 04:00:00 0,5 -0,6 2 1 6 4 ESE 1019,9 50 0,0
19.10.2018 03:00:00 0,0 -1,0 0 0 5 3 N 1019,3 50 0,0
19.10.2018 02:00:00 0,3 -0,8 0 0 4 2 N 1019,2 50 0,0
19.10.2018 01:00:00 -0,2 -1,2 2 1 4 2 N 1019,1 50 0,0
19.10.2018 00:00:00 -0,3 -1,9 0 0 6 3 N 1018,9 50 0,0
18.10.2018 23:00:00 5,2 -0,8 6 4 15 8 NNW 1018,2 50 0,0
18.10.2018 22:00:00 1,6 -0,6 5 3 10 5 NNW 1018,0 50 0,0
18.10.2018 21:00:00 1,7 -0,4 0 0 5 3 N 1017,9 50 0,0
18.10.2018 20:00:00 3,5 0,0 0 0 8 5 N 1017,4 50 0,0
18.10.2018 19:00:00 4,9 0,8 0 0 9 5 N 1016,9 50 0,0
18.10.2018 18:00:00 6,5 0,4 3 2 19 10 NW 1016,5 50 0,0
18.10.2018 17:00:00 10,0 0,3 11 6 32 17 W 1015,9 50 0,0
18.10.2018 16:00:00 10,9 1,4 8 5 20 11 W 1015,5 50 0,0
18.10.2018 15:00:00 11,3 1,8 9 5 23 12 W 1015,0 50 0,0
18.10.2018 14:00:00 10,6 2,7 8 5 23 13 W 1014,8 50 0,0
18.10.2018 13:00:00 10,7 4,2 11 6 24 13 W 1014,7 50 0,0
18.10.2018 12:00:00 10,1 5,3 4 2 13 7 W 1014,6 50 0,0
18.10.2018 11:00:00 8,6 5,3 6 3 11 6 WNW 1014,4 50 0,0
18.10.2018 10:00:00 5,8 5,8 0 0 3 1 N 1014,4 50 0,0
18.10.2018 09:00:00 4,4 4,4 0 0 3 1 N 1014,0 50 0,0
18.10.2018 08:00:00 4,3 4,3 0 0 5 3 N 1013,3 50 0,0
18.10.2018 07:00:00 4,4 4,4 0 0 3 2 N 1012,9 50 0,0
18.10.2018 06:00:00 4,5 4,5 0 0 5 3 N 1012,7 50 0,0
18.10.2018 05:00:00 4,0 4,0 0 0 5 3 N 1012,6 43 0,0
18.10.2018 04:00:00 4,8 4,8 0 0 4 2 N 1012,8 50 0,0
18.10.2018 03:00:00 3,5 3,5 2 1 4 2 NNE 1012,7 40 0,0
18.10.2018 02:00:00 3,7 3,6 0 0 3 2 N 1012,3 44 0,0
18.10.2018 01:00:00 5,3 5,3 2 1 6 3 W 1012,0 50 0,0
18.10.2018 00:00:00 4,4 4,3 0 0 4 2 N 1011,7 50 0,0
17.10.2018 23:00:00 4,7 4,6 0 0 3 2 N 1011,4 50 0,0

tt = Température de l'air
td = dewpoint
ff = Vitesse du vent
fx = gusts
dd = Direction du vent
ppp = reduced air pressure
vv = visibility
rr = Quantités de précipitations

stations d'obs. à proximité